Location: Derby
(52.9213°N, 1.4761°W)
Time: 02:23:31
(UTC+01:00)

A-11 Canister half - Pass Details

Date: 24 May 2025
Orbit: 1524 x 1684 km, 47.3° (Epoch: 12 June)

Event Time Altitude Azimuth Distance (km) Brightness Sun altitude
Rises 22:27:45 0° 271° (W) 4,729 12.2 -8.9°
Reaches altitude 10° 22:30:50 10° 268° (W) 3,763 11.5 -9.1°
Maximum altitude 22:40:08 60° 192° (SSW) 1,804 9.2 -9.9°
Drops below altitude 10° 22:49:47 10° 116° (ESE) 3,884 10.6 -10.7°
Enters shadow 22:51:37 - 115° (ESE) 4,453 10.9 -10.8°
